Weather History for Faribault, MN

Change the Weather History Date:

Saturday, December 22, 2012

  Actual Average Record
Temperature  
Mean Temperature 16 °F -  
Max Temperature 26 °F 25 °F 45 °F (1979)
Min Temperature 5 °F 7 °F -23 °F (1989)
Degree Days  
Heating Degree Days 50    
Moisture  
Dew Point 12 °F    
Average Humidity 83    
Maximum Humidity 93    
Minimum Humidity 73    
Precipitation  
Precipitation 0.00 in - - ()
Sea Level Pressure  
Sea Level Pressure 30.03 in    
Wind  
Wind Speed 4 mph (SW)    
Max Wind Speed 12 mph    
Max Gust Speed 16 mph    
Visibility 10 miles    
Events      
Averages and records for this station are not official NWS values.
T = Trace of Precipitation, MM = Missing Value Source: NWS Daily Summary

Daily Weather History Graph

Daily Weather History Graph

Search for Another Location

Airport:

Trip Planner

Search our weather history database for the weather conditions in past years. The results will help you decide how hot, cold, wet, or windy it might be!

Date:

Astronomy

Dec. 22, 2012 Rise Set
Actual Time 7:46 AM CST 4:37 PM CST
Civil Twilight 7:13 AM CST 5:11 PM CST
Nautical Twilight 6:36 AM CST 5:47 PM CST
Astronomical Twilight 6:01 AM CST 6:23 PM CST
Moon 1:01 PM CST (12/22) 2:25 AM CST (12/22)
Length of Visible Light 9h 57m
Length of Day
8h 50m
Waxing Gibbous, 74% of the Moon is Illuminated
Dec 22
Waxing Gibbous
Dec 28
Full
Jan 4
Last Quarter
Jan 11
New
Jan 18
First Quarter

Hourly Weather History & Observations

Time (CST) Temp. Windchill Dew Point Humidity Pressure Visibility Wind Dir Wind Speed Gust Speed Precip Events Conditions
12:13 AM 6.8 °F - 5.0 °F 92% 30.18 in 10.0 mi Calm Calm - N/A   Clear
12:34 AM 6.8 °F -0.1 °F 5.0 °F 92% 30.17 in 10.0 mi SSE 3.5 mph - N/A   Clear
12:54 AM 6.8 °F - 3.2 °F 85% 30.16 in 10.0 mi Calm Calm - N/A   Clear
1:14 AM 6.8 °F -0.1 °F 5.0 °F 92% 30.16 in 10.0 mi South 3.5 mph - N/A   Clear
1:34 AM 6.8 °F - 5.0 °F 92% 30.16 in 10.0 mi Calm Calm - N/A   Clear
1:54 AM 6.8 °F - 5.0 °F 92% 30.16 in 10.0 mi Calm Calm - N/A   Clear
2:14 AM 6.8 °F - 3.2 °F 85% 30.16 in 10.0 mi Calm Calm - N/A   Clear
2:33 AM 5.0 °F - 3.2 °F 92% 30.14 in 10.0 mi Calm Calm - N/A   Clear
2:54 AM 5.0 °F - 3.2 °F 92% 30.14 in 10.0 mi Calm Calm - N/A   Clear
3:14 AM 6.8 °F - 3.2 °F 85% 30.14 in 10.0 mi Calm Calm - N/A   Clear
3:34 AM 6.8 °F -0.1 °F 5.0 °F 92% 30.12 in 10.0 mi SSE 3.5 mph - N/A   Clear
3:54 AM 8.6 °F 2.0 °F 6.8 °F 92% 30.11 in 10.0 mi SSE 3.5 mph - N/A   Clear
4:14 AM 8.6 °F 0.1 °F 6.8 °F 92% 30.10 in 10.0 mi South 4.6 mph - N/A   Clear
4:34 AM 10.4 °F -0.4 °F 6.8 °F 85% 30.09 in 10.0 mi South 6.9 mph - N/A   Clear
4:54 AM 10.4 °F -0.4 °F 6.8 °F 85% 30.08 in 10.0 mi South 6.9 mph - N/A   Clear
5:14 AM 12.2 °F 2.9 °F 8.6 °F 85% 30.06 in 10.0 mi SSE 5.8 mph - N/A   Clear
5:34 AM 14.0 °F 3.9 °F 8.6 °F 79% 30.05 in 10.0 mi SSE 6.9 mph - N/A   Clear
5:54 AM 15.8 °F 5.1 °F 10.4 °F 79% 30.05 in 10.0 mi South 8.1 mph - N/A   Clear
6:14 AM 15.8 °F 4.2 °F 10.4 °F 79% 30.04 in 10.0 mi South 9.2 mph - N/A   Clear
6:34 AM 17.6 °F 8.2 °F 10.4 °F 73% 30.03 in 10.0 mi South 6.9 mph - N/A   Clear
6:54 AM 17.6 °F 5.7 °F 10.4 °F 73% 30.02 in 10.0 mi SSE 10.4 mph - N/A   Clear
7:14 AM 17.6 °F 5.0 °F 10.4 °F 73% 30.01 in 10.0 mi SSE 11.5 mph - N/A   Clear
7:34 AM 17.6 °F 6.4 °F 10.4 °F 73% 30.01 in 10.0 mi South 9.2 mph - N/A   Clear
7:54 AM 17.6 °F 7.3 °F 10.4 °F 73% 30.03 in 10.0 mi South 8.1 mph - N/A   Clear
8:14 AM 17.6 °F 8.2 °F 10.4 °F 73% 30.02 in 10.0 mi South 6.9 mph - N/A   Clear
8:34 AM 17.6 °F 7.3 °F 10.4 °F 73% 30.02 in 10.0 mi South 8.1 mph - N/A   Clear
8:54 AM 17.6 °F 8.2 °F 10.4 °F 73% 30.03 in 10.0 mi South 6.9 mph - N/A   Clear
9:14 AM 17.6 °F 6.4 °F 12.2 °F 79% 30.02 in 10.0 mi South 9.2 mph - N/A   Clear
9:34 AM 19.4 °F 9.5 °F 12.2 °F 74% 30.02 in 10.0 mi South 8.1 mph - N/A   Clear
9:54 AM 19.4 °F 7.9 °F 12.2 °F 74% 30.02 in 10.0 mi South 10.4 mph 16.1 mph N/A   Clear
10:14 AM 19.4 °F 7.2 °F 12.2 °F 74% 30.02 in 10.0 mi South 11.5 mph 16.1 mph N/A   Clear
10:34 AM 19.4 °F 10.4 °F 14.0 °F 80% 30.02 in 10.0 mi South 6.9 mph - N/A   Clear
10:54 AM 19.4 °F 10.4 °F 14.0 °F 80% 30.01 in 10.0 mi South 6.9 mph - N/A   Clear
11:14 AM 21.2 °F 13.6 °F 15.8 °F 80% 30.00 in 10.0 mi South 5.8 mph - N/A   Clear
11:34 AM 19.4 °F 10.4 °F 15.8 °F 86% 29.99 in 10.0 mi South 6.9 mph - N/A   Clear
11:54 AM 21.2 °F 16.4 °F 15.8 °F 80% 29.99 in 10.0 mi South 3.5 mph - N/A   Clear
12:14 PM 21.2 °F 14.9 °F 15.8 °F 80% 29.98 in 10.0 mi SSW 4.6 mph - N/A   Clear
12:34 PM 23.0 °F 14.7 °F 17.6 °F 80% 29.97 in 10.0 mi South 6.9 mph - N/A   Clear
12:54 PM 24.8 °F 16.1 °F 17.6 °F 74% 29.96 in 10.0 mi SSW 8.1 mph - N/A   Clear
1:14 PM 23.0 °F 17.0 °F 17.6 °F 80% 29.96 in 10.0 mi West 4.6 mph - N/A   Clear
1:34 PM 24.8 °F 19.1 °F 17.6 °F 74% 29.95 in 10.0 mi East 4.6 mph - N/A   Clear
1:54 PM 24.8 °F - 19.4 °F 80% 29.95 in 10.0 mi Calm Calm - N/A   Clear
2:14 PM 24.8 °F - 19.4 °F 80% 29.94 in 10.0 mi Calm Calm - N/A   Clear
2:34 PM 24.8 °F - 19.4 °F 80% 29.95 in 10.0 mi Calm Calm - N/A   Clear
2:54 PM 26.6 °F - 19.4 °F 74% 29.95 in 10.0 mi Calm Calm - N/A   Clear
3:14 PM 24.8 °F - 19.4 °F 80% 29.95 in 10.0 mi Calm Calm - N/A   Clear
3:34 PM 24.8 °F - 19.4 °F 80% 29.96 in 10.0 mi Calm Calm - N/A   Clear
3:54 PM 24.8 °F - 19.4 °F 80% 29.96 in 10.0 mi Calm Calm - N/A   Clear
4:14 PM 24.8 °F - 17.6 °F 74% 29.96 in 10.0 mi Calm Calm - N/A   Clear
4:34 PM 21.2 °F - 17.6 °F 86% 29.96 in 10.0 mi Calm Calm - N/A   Clear
4:54 PM 19.4 °F - 15.8 °F 86% 29.96 in 10.0 mi Calm Calm - N/A   Clear
5:14 PM 19.4 °F 14.3 °F 15.8 °F 86% 29.97 in 10.0 mi WNW 3.5 mph - N/A   Clear
5:34 PM 17.6 °F 12.3 °F 15.8 °F 93% 29.97 in 10.0 mi NW 3.5 mph - N/A   Clear
5:54 PM 19.4 °F 12.8 °F 15.8 °F 86% 29.98 in 10.0 mi NW 4.6 mph - N/A   Clear
6:14 PM 19.4 °F 12.8 °F 15.8 °F 86% 29.98 in 10.0 mi WNW 4.6 mph - N/A   Clear
6:34 PM 19.4 °F 12.8 °F 15.8 °F 86% 29.98 in 10.0 mi WNW 4.6 mph - N/A   Clear
6:54 PM 17.6 °F 9.3 °F 15.8 °F 93% 29.99 in 10.0 mi NW 5.8 mph - N/A   Clear
7:14 PM 17.6 °F 9.3 °F 15.8 °F 93% 29.99 in 10.0 mi WNW 5.8 mph - N/A   Clear
7:34 PM 17.6 °F 8.2 °F 15.8 °F 93% 29.99 in 10.0 mi NW 6.9 mph - N/A   Clear
7:53 PM 17.6 °F 8.2 °F 14.0 °F 86% 29.99 in 10.0 mi WNW 6.9 mph - N/A   Clear
8:14 PM 15.8 °F 7.2 °F 12.2 °F 86% 30.00 in 10.0 mi WNW 5.8 mph - N/A   Clear
8:34 PM 15.8 °F 8.6 °F 12.2 °F 86% 30.00 in 10.0 mi NW 4.6 mph - N/A   Clear
8:54 PM 15.8 °F 8.6 °F 12.2 °F 86% 30.00 in 10.0 mi NW 4.6 mph - N/A   Clear
9:14 PM 15.8 °F 8.6 °F 12.2 °F 86% 30.00 in 10.0 mi NW 4.6 mph - N/A   Clear
9:34 PM 15.8 °F 7.2 °F 12.2 °F 86% 30.00 in 10.0 mi NW 5.8 mph - N/A   Clear
9:54 PM 15.8 °F 6.1 °F 12.2 °F 86% 30.01 in 10.0 mi NW 6.9 mph - N/A   Clear
10:14 PM 15.8 °F 5.1 °F 12.2 °F 86% 30.01 in 10.0 mi NW 8.1 mph - N/A   Clear
10:34 PM 15.8 °F 8.6 °F 12.2 °F 86% 30.01 in 10.0 mi NW 4.6 mph - N/A   Clear
10:54 PM 14.0 °F 5.1 °F 10.4 °F 86% 30.02 in 10.0 mi NW 5.8 mph - N/A   Clear
11:14 PM 14.0 °F 5.1 °F 10.4 °F 86% 30.02 in 10.0 mi NW 5.8 mph - N/A   Clear
11:34 PM 14.0 °F 5.1 °F 10.4 °F 86% 30.02 in 10.0 mi NW 5.8 mph - N/A   Clear
11:54 PM 12.2 °F 4.3 °F 10.4 °F 92% 30.02 in 10.0 mi WNW 4.6 mph - N/A   Clear